TV
NORAD ID: 17561
Int'l Code: 1987-022A
Perigee: 35,878.0 km
Apogee: 35,913.8 km
Inclination: 14.3 °
Period: 1,441.3 minutes
Semi major axis: 42266 km
Launch date: February 26, 1987
Source: United States (US)
Two Line Element Set (TLE):
1 17561U 87022A 13165.37096168 -.00000188 00000-0 10000-3 0 9694
2 17561 014.3269 021.7603 0004226 011.7174 348.2926 00.99908511 79520
Source:
NASA's NSSDC Master Catalog entry for GOES 7